Wind_Speed
11 12 11 11 12 13 12 4 3 13 17 3 3 3 5 1 3 7 5 3 4 4 5 4 4 4 4 5 1 3 1 3 2 2 7 2 1 4 4 3 2 2 2 4
15 12 10 10 12 12 5 3 3 8 5 3 3 3 2 4 1 3 3 5 4 4 2 4 6 5 3 5 3 4 3 1 3 2 2 3 4 4 4 0 2 5 2 4
12 11 11 10 10 9 3 2 3 2 2 3 3 4 5 6 2 3 4 3 3 3 5 7 4 4 4 6 3 9 3 2 3 3 2 2 1 3 2 4 2 3 10 14
12 11 11 10 10 8 3 1 4 5 4 4 5 2 2 4 3 2 3 4 3 3 3 2 3 3 3 4 5 4 3 2 2 4 1 2 4 9 10 7 10 5 16 14
13 11 10 10 9 7 3 3 3 1 1 3 5 1 2 6 4 2 2 5 4 5 4 3 3 3 2 2 5 3 4 2 2 2 6 7 8 11 10 13 14 16 19 21
12 10 9 8 8 9 5 2 0 2 2 3 4 3 4 4 6 5 5 8 5 7 3 2 3 4 3 3 4 2 1 3 2 2 0 4 6 1 0 6 9 12 15 15
11 10 9 6 5 13 5 3 2 2 0 2 3 6 8 6 3 6 3 5 4 2 2 2 3 2 1 2 3 4 4 4 2 2 2 1 1 5 1 8 7 11 8 5
11 10 8 4 5 7 6 4 2 2 2 2 8 10 10 10 7 5 5 4 1 1 4 2 2 2 2 2 3 4 5 3 1 2 1 5 4 5 5 4 4 7 8 4
11 10 7 4 6 6 7 6 2 2 5 2 2 5 4 4 3 3 2 3 4 6 3 3 2 1 1 2 3 9 6 3 2 2 2 4 2 11 11 8 4 8 8 5
12 10 7 6 6 5 3 6 2 4 4 2 1 3 4 4 4 3 2 3 4 4 2 3 2 2 0 2 1 1 4 3 4 3 2 3 8 13 8 3 4 8 7 6
12 10 8 7 5 2 2 7 7 3 3 2 3 2 4 3 3 3 2 3 4 3 3 2 2 2 1 2 3 4 2 1 2 3 4 4 13 3 5 5 4 6 6 7
13 11 8 7 5 3 3 5 10 13 5 3 4 11 10 4 5 5 2 4 2 3 4 1 2 1 1 3 0 4 2 0 1 2 2 3 4 5 5 7 5 6 7 10
13 10 10 10 7 4 6 9 7 8 3 4 5 4 7 7 7 5 4 1 3 2 3 3 2 3 2 1 1 1 4 4 2 3 2 3 5 7 8 9 8 9 10 11
12 10 12 11 10 10 10 12 8 8 3 3 2 3 4 6 8 11 9 8 6 5 2 2 2 2 1 1 2 2 2 3 2 3 4 5 7 6 6 7 8 10 10 10
13 12 12 13 15 18 23 24 20 11 4 3 2 0 7 6 11 14 13 11 4 3 2 2 1 1 2 1 2 2 2 2 1 2 1 3 4 5 6 7 8 8 9 11
15 13 12 10 9 6 5 4 12 15 5 4 2 3 4 4 7 10 7 5 3 2 2 1 1 2 2 2 1 2 3 3 3 3 6 9 8 7 8 9 9 10 11 11
16 13 11 9 7 8 7 3 3 8 5 3 3 2 3 1 3 2 2 3 2 2 1 0 1 2 3 2 2 7 6 5 6 5 6 6 3 5 8 10 12 13 13 12
18 18 19 19 16 13 9 14 12 6 8 3 3 1 2 3 1 2 2 2 2 3 1 1 1 2 1 1 5 6 6 6 3 5 2 7 11 10 9 10 8 7 7 8
19 16 13 7 7 4 2 6 8 12 7 3 2 4 3 2 2 2 2 1 1 1 0 2 2 1 3 2 11 9 6 4 8 8 8 9 9 8 7 7 6 6 5 6
17 6 5 3 3 5 3 4 4 4 3 3 2 1 1 3 1 1 2 1 1 0 3 2 2 2 2 3 5 6 6 8 10 8 6 7 10 8 7 5 5 6 7 8
3 3 2 4 4 3 3 3 3 2 2 1 1 1 2 1 3 2 1 2 1 1 3 4 3 2 4 5 8 6 6 6 4 4 6 6 8 9 8 6 7 8 8 7
7 12 7 2 2 2 2 2 1 1 1 1 3 3 3 0 2 3 1 1 2 3 3 1 2 1 6 7 8 6 7 9 9 10 11 12 12 11 12 10 9 9 11 11
7 3 3 0 2 2 3 3 1 1 2 2 2 0 2 2 3 2 2 2 1 1 2 3 2 3 6 8 7 7 8 11 13 12 13 15 14 12 13 13 13 13 11 9
3 2 3 2 1 2 3 3 3 2 1 2 2 2 2 1 3 1 1 4 1 1 2 3 2 6 7 6 5 6 5 7 9 9 12 14 15 16 14 13 11 12 12 10
2 1 1 2 3 2 2 2 2 1 2 2 2 3 2 2 3 1 2 2 3 3 3 3 3 6 7 6 4 6 6 6 7 13 13 15 15 16 13 11 9 8 8 8
2 2 2 1 2 2 2 2 2 1 1 1 2 2 3 2 3 1 3 1 3 3 2 2 6 5 5 5 5 7 12 13 14 15 16 14 13 12 11 9 7 6 6 6
2 2 1 1 2 1 1 1 0 1 2 1 1 2 5 0 1 2 2 3 2 2 1 1 2 7 6 6 11 13 14 15 16 15 14 12 11 11 9 7 6 5 3 2
Wind_Direction
185 165 159 160 159 156 171 139 102 159 159 165 205 212 223 52 342 47 39 90 12 30 32 58 83 105 48 348 77 77 58 112 130 258 326 268 95 70 54 133 142 279 306 262
170 168 170 164 167 173 163 119 104 176 182 194 215 269 39 35 56 16 96 357 28 40 59 111 81 85 340 22 95 148 162 131 123 91 357 34 80 75 86 303 153 223 214 247
169 178 180 178 174 188 192 115 106 121 210 269 242 186 174 161 84 77 69 100 114 70 31 30 108 98 26 4 66 61 77 127 133 184 129 99 312 308 252 169 138 230 241 293
172 175 178 182 182 180 206 147 214 175 188 243 239 159 151 104 123 94 47 51 74 123 108 77 94 68 30 26 14 45 74 127 155 229 171 168 217 262 268 224 242 223 272 252
174 181 181 186 183 189 213 179 154 55 215 136 138 280 152 128 99 54 57 107 84 87 99 47 147 131 169 178 19 64 10 103 83 276 241 236 257 246 232 238 255 253 255 263
170 181 187 187 199 202 231 192 328 132 306 120 118 176 136 137 126 37 62 129 96 79 129 167 197 192 181 160 138 89 56 117 80 260 98 296 275 260 123 301 304 275 251 249
170 174 177 189 212 204 234 194 162 102 30 103 123 116 112 117 80 119 71 76 90 148 76 108 65 67 237 254 250 163 146 135 124 246 287 307 57 67 304 314 355 344 339 331
165 169 165 160 138 185 205 169 163 123 86 108 98 105 109 83 70 73 76 35 343 82 54 63 71 5 124 68 219 201 179 131 168 120 267 304 202 35 345 345 315 13 338 93
165 161 151 124 139 142 112 82 128 107 118 329 347 82 94 109 109 43 57 34 15 66 72 68 89 107 349 63 41 28 110 85 107 154 182 248 357 322 316 281 236 18 354 325
156 153 134 107 108 121 137 69 89 103 104 351 47 121 134 121 88 90 17 355 27 56 59 67 109 106 217 49 343 333 119 155 205 240 276 305 350 316 303 224 3 22 2 359
149 148 139 106 112 103 144 72 52 119 101 32 18 62 117 84 81 122 254 46 351 43 72 109 185 101 286 41 234 326 71 249 180 187 216 270 0 351 39 313 43 37 42 55
145 138 134 100 92 122 127 83 70 74 80 129 68 65 51 69 156 128 45 163 165 176 86 39 104 131 57 148 47 348 43 249 134 21 101 11 25 26 30 23 40 37 58 59
140 130 114 96 91 96 135 93 69 84 83 33 44 14 46 68 73 81 114 339 139 82 162 156 145 95 117 79 43 301 8 3 108 175 98 61 40 57 50 50 54 59 60 68
137 126 113 100 93 87 125 81 55 77 101 101 312 34 44 67 78 75 87 119 83 102 73 87 113 109 133 161 87 96 347 337 6 76 122 115 62 64 64 67 66 66 61 62
134 128 132 114 107 97 88 74 54 58 115 141 151 23 19 103 93 85 92 90 81 59 47 58 106 152 94 28 82 74 350 329 30 179 53 81 66 77 83 75 76 76 80 74
133 128 132 130 122 103 59 44 37 35 53 95 99 322 11 90 100 84 67 66 78 79 111 199 285 254 108 113 115 149 121 61 42 130 85 96 95 86 83 82 75 73 79 83
132 121 114 112 94 76 71 113 331 15 30 79 66 48 346 64 116 60 47 54 64 94 108 86 193 300 136 125 190 169 128 107 112 126 121 113 161 123 111 103 95 92 85 79
127 115 106 99 94 88 56 40 37 26 84 67 99 336 48 14 59 91 1 61 30 20 115 26 210 346 71 212 138 136 118 102 101 158 51 102 107 103 102 105 111 102 92 89
127 123 111 84 43 51 72 47 41 52 67 106 81 128 208 14 40 58 42 57 55 326 92 246 108 310 218 203 159 158 160 147 135 115 108 131 128 128 126 123 114 111 113 102
131 109 49 31 46 96 10 28 24 15 351 42 97 29 112 100 344 338 82 24 184 213 242 105 131 244 84 60 132 125 134 135 137 128 128 121 139 142 141 121 94 99 112 106
58 62 63 112 82 32 46 46 64 10 30 26 88 168 133 264 107 188 197 186 183 242 252 143 214 242 157 122 102 93 86 95 119 112 104 120 139 139 132 118 101 104 107 104
106 110 111 98 49 69 63 54 99 45 110 194 145 212 179 235 107 99 235 229 176 254 145 183 222 244 128 115 111 95 85 97 87 95 102 105 109 115 116 116 117 119 121 123
87 80 97 333 10 112 134 154 198 323 192 201 163 61 141 31 53 72 86 296 200 293 214 224 219 147 124 124 124 104 94 92 91 88 94 102 103 116 127 124 127 125 116 114
77 84 105 99 156 240 192 189 189 229 111 157 127 79 122 85 60 104 236 245 269 352 261 247 222 163 136 137 135 122 99 95 101 103 112 114 115 108 112 114 124 129 120 119
81 66 127 180 227 228 201 208 171 120 121 99 65 49 84 3 77 223 216 318 274 203 237 231 198 146 144 138 114 120 124 120 116 125 119 119 119 117 113 123 126 123 122 123
64 48 97 147 84 18 27 21 46 15 68 68 53 95 49 311 144 150 226 157 230 255 227 213 144 139 128 128 120 133 141 139 133 128 128 128 131 131 126 122 122 121 120 120
40 30 62 96 130 126 147 104 4 351 61 117 114 195 219 147 188 241 189 217 227 229 224 201 149 158 153 133 135 142 141 138 138 135 137 134 132 127 124 117 119 115 117 117
Height
713 715 716 717 720 724 728 729 735 733 737 744 739 737 720 713 715 712 716 722 717 715 715 716 723 730 729 731 730 736 739 747 753 745 744 741 742 749 749 760 754 759 752 742
713 716 717 718 720 724 726 729 734 735 737 737 734 723 717 718 717 721 720 721 719 719 722 725 723 733 736 733 733 739 740 754 757 753 748 746 751 753 756 761 768 770 768 734
713 716 717 718 721 723 725 729 742 739 740 735 731 722 721 722 719 722 721 724 723 724 726 729 734 738 740 739 736 736 738 750 749 757 752 760 758 759 759 769 808 781 753 742
712 715 716 718 720 721 725 726 729 723 740 733 726 716 714 717 722 721 722 727 727 727 734 737 743 743 743 741 741 746 747 753 754 756 757 760 760 760 758 765 759 775 741 740
711 713 716 717 718 721 723 723 719 719 720 715 718 720 716 715 721 723 726 731 731 731 738 739 744 744 746 746 748 751 758 761 760 761 757 759 756 754 756 754 751 747 739 735
710 712 713 715 717 719 719 716 715 718 720 718 718 718 717 722 724 728 727 731 736 739 741 740 741 742 744 745 750 755 760 772 773 765 754 752 748 739 743 746 740 734 734 725
708 711 712 714 714 715 715 714 716 719 724 717 716 714 717 723 724 730 733 733 736 739 739 741 743 747 750 752 754 756 768 768 777 771 758 776 741 745 747 748 739 744 732 723
708 709 712 713 712 712 714 713 714 715 730 718 719 721 725 729 732 735 737 739 740 739 742 746 744 749 745 748 754 757 757 767 781 785 774 750 743 753 759 753 743 751 745 743
707 709 711 712 711 713 712 711 712 713 723 732 727 728 728 737 740 743 741 741 740 742 758 762 756 763 750 747 751 754 759 758 767 766 781 781 765 759 754 755 743 758 756 750
707 709 711 711 711 711 711 712 712 713 730 731 729 731 734 738 742 747 748 746 745 748 772 781 786 764 753 756 769 753 761 765 767 769 770 764 768 759 753 744 761 763 762 757
707 710 712 712 712 712 711 713 712 712 726 731 730 729 734 738 741 752 752 757 757 762 768 769 788 790 770 770 785 757 757 758 757 755 761 762 769 757 762 770 769 768 769 768
708 711 712 712 713 713 712 712 713 713 719 732 732 732 732 734 737 747 753 756 757 762 769 774 775 772 784 778 767 763 771 773 767 767 775 775 777 775 777 775 773 773 773 773
710 712 713 713 714 713 713 714 715 716 727 733 735 740 740 739 738 739 749 754 753 757 760 773 775 773 770 780 770 771 767 767 766 769 775 777 777 779 779 779 780 780 780 781
711 713 714 716 717 715 715 716 719 719 728 744 746 741 742 742 741 741 742 747 752 756 759 770 778 770 766 773 767 774 771 771 770 773 777 779 780 781 783 784 785 785 786 787
713 716 718 720 720 720 719 720 723 724 729 743 746 744 745 745 746 746 748 750 754 760 765 773 773 767 770 765 774 777 772 776 777 782 779 778 784 784 786 787 788 790 790 792
716 718 720 722 722 722 721 727 729 728 728 738 753 751 748 749 750 751 752 754 758 763 767 772 768 766 770 781 780 775 775 775 776 784 782 783 787 789 790 791 793 794 794 797
719 722 723 723 724 724 728 737 736 732 731 741 758 754 752 751 752 754 756 757 761 763 768 768 769 766 765 775 774 773 774 777 779 782 783 787 788 791 793 794 796 798 800 801
722 724 725 726 727 729 733 736 735 735 735 742 760 762 757 753 758 757 761 761 763 766 768 770 767 766 766 761 774 774 776 779 781 782 784 784 790 793 796 798 800 801 803 804
724 726 728 729 731 736 740 740 739 738 742 754 758 762 772 757 762 761 765 766 771 769 773 768 769 778 767 770 770 773 778 780 781 784 786 789 791 796 798 800 802 803 806 807
727 729 732 741 741 741 741 742 744 746 748 750 760 759 761 760 772 773 773 772 771 773 768 768 768 776 770 769 771 774 776 777 781 786 789 790 794 796 800 802 804 805 808 811
730 735 741 743 742 743 745 752 756 753 755 755 757 758 759 757 768 769 767 769 768 765 765 766 764 766 767 772 775 778 779 781 782 784 785 789 793 797 801 806 807 809 811 813
733 736 742 744 745 746 746 751 753 753 749 758 758 758 758 757 757 765 767 757 758 753 762 760 757 772 772 775 779 783 783 784 785 787 789 793 797 800 804 808 810 812 814 816
737 740 743 745 751 749 752 759 752 765 756 757 758 762 760 758 760 768 765 762 752 756 753 758 768 772 774 778 782 785 787 787 789 793 796 798 801 804 806 810 812 814 815 817
741 741 747 755 755 758 764 761 762 753 755 756 759 761 761 762 766 768 758 772 760 761 757 764 777 771 777 780 783 785 790 792 796 799 801 803 805 807 810 811 814 815 817 818
744 744 759 753 755 754 750 750 750 751 752 756 756 760 763 769 773 761 763 761 762 757 771 774 775 773 777 781 785 789 793 796 799 801 803 805 807 809 812 814 816 817 819 820
747 748 749 751 749 751 750 750 750 750 751 754 757 764 774 770 764 759 759 757 767 761 770 775 768 775 780 784 787 791 794 796 799 801 804 807 810 812 814 816 818 819 821 822
751 751 755 753 755 754 753 753 752 752 753 757 753 755 764 761 755 753 755 756 764 773 769 775 774 776 782 785 788 791 794 797 800 803 806 809 812 814 816 818 820 821 822 823